EW5474 Weather Reports


Display with metric or nautical units.
time (UTC)temp
F
wind
direction
speed
MPH
gust
MPH
rain 1hr
in
rain 24hr
in
rain mn
in
humidity
%
barometer
mb
20260509152405 70 217 2.0 5.0 0.00 0.03 0.02 70 1012.5
20260509152130 70 207 2.0 6.0 0.00 0.03 0.02 70 1012.8
20260509151353 70 220 2.0 6.0 0.00 0.03 0.02 70 1012.9
20260509150847 70 210 1.0 5.0 0.00 0.03 0.02 71 1012.9
20260509150341 71 159 1.0 3.0 0.00 0.03 0.02 72 1013.1
20260509145835 71 240 1.0 6.0 0.00 0.03 0.02 72 1013.1
20260509145329 71 235 1.0 6.0 0.00 0.03 0.02 75 1013.2
20260509144823 69 279 1.0 2.0 0.00 0.03 0.02 74 1013.4
20260509144317 69 238 0.0 3.0 0.00 0.03 0.02 75 1013.4
20260509143811 69 215 0.0 2.0 0.00 0.03 0.02 75 1013.4
20260509143536 68 217 1.0 3.0 0.01 0.03 0.02 77 1013.3
20260509142759 68 205 1.0 6.0 0.01 0.03 0.02 77 1013.4
20260509142253 68 230 1.0 6.0 0.01 0.03 0.02 79 1013.4
20260509141746 67 159 0.0 4.0 0.01 0.03 0.02 80 1013.4
20260509141241 67 194 0.0 0.0 0.01 0.03 0.02 81 1013.4
20260509140735 66 71 0.0 3.0 0.01 0.03 0.02 82 1013.4
20260509140229 65 346 0.0 3.0 0.01 0.03 0.02 83 1013.4
20260509135723 64 137 0.0 0.0 0.01 0.03 0.02 85 1013.5
20260509135217 63 137 0.0 0.0 0.01 0.03 0.02 85 1013.4
20260509134942 63 137 0.0 0.0 0.01 0.03 0.02 86 1013.4
20260509134212 62 137 0.0 0.0 0.01 0.03 0.02 86 1013.5
20260509133711 62 137 0.0 0.0 0.00 0.02 0.01 86 1013.4
20260509133210 62 137 0.0 0.0 0.00 0.02 0.01 86 1013.4
20260509132710 61 137 0.0 0.0 0.00 0.02 0.01 86 1013.5
20260509132442 61 137 0.0 0.0 0.00 0.02 0.01 86 1013.3
20260509131942 61 137 0.0 0.0 0.00 0.02 0.01 86 1013.5
20260509131441 61 99 0.0 0.0 0.00 0.02 0.01 86 1013.5
20260509130709 61 99 0.0 0.0 0.00 0.02 0.01 87 1013.6
20260509130208 61 99 0.0 0.0 0.00 0.02 0.01 88 1013.6
20260509125704 59 99 0.0 0.0 0.00 0.02 0.01 88 1013.6
20260509125203 59 167 0.0 0.0 0.01 0.02 0.01 88 1013.7
20260509124933 59 167 0.0 0.0 0.01 0.02 0.01 88 1013.9
20260509124158 58 167 0.0 0.0 0.01 0.02 0.01 87 1013.9
20260509123931 58 167 0.0 0.0 0.01 0.02 0.01 88 1013.9
20260509123200 58 167 0.0 0.0 0.01 0.02 0.01 87 1013.8
20260509122657 58 167 0.0 0.0 0.01 0.02 0.01 88 1013.8
20260509122156 58 167 0.0 0.0 0.01 0.02 0.01 87 1013.9
20260509121654 57 167 0.0 0.0 0.01 0.02 0.01 88 1013.9
20260509121422 57 167 0.0 0.0 0.01 0.02 0.01 88 1013.9
20260509120651 56 167 0.0 0.0 0.01 0.02 0.01 87 1013.8
20260509120145 56 167 0.0 1.0 0.01 0.02 0.01 87 1013.8
20260509115639 56 167 0.0 1.0 0.01 0.02 0.01 87 1013.7
20260509115405 56 165 0.0 0.0 0.00 0.01 0.00 87 1013.8
20260509114627 55 187 0.0 0.0 0.00 0.01 0.00 87 1013.9
20260509114121 55 156 0.0 0.0 0.00 0.01 0.00 87 1013.9
20260509113616 55 156 0.0 0.0 0.00 0.01 0.00 87 1013.9
20260509113116 54 156 0.0 0.0 0.00 0.01 0.00 87 1013.9
20260509112617 54 153 0.0 0.0 0.00 0.01 0.00 86 1013.8
20260509112117 53 176 0.0 0.0 0.00 0.01 0.00 86 1013.9
20260509111616 53 186 0.0 0.0 0.00 0.01 0.00 86 1013.9
20260509111117 53 186 0.0 0.0 0.00 0.01 0.00 85 1013.9
20260509110616 52 186 0.0 0.0 0.00 0.01 0.00 84 1014.0
20260509110117 52 188 0.0 0.0 0.00 0.01 0.00 84 1014.1
20260509105617 52 188 0.0 0.0 0.00 0.01 0.00 83 1014.3
20260509105115 52 188 0.0 0.0 0.00 0.01 0.00 83 1014.3
20260509104615 52 188 0.0 0.0 0.00 0.01 0.00 83 1014.2
20260509104114 52 188 0.0 0.0 0.00 0.01 0.00 82 1014.3
20260509103613 52 188 0.0 0.0 0.00 0.01 0.00 82 1014.3
20260509103110 52 188 0.0 0.0 0.00 0.01 0.00 82 1014.3
20260509102610 52 188 0.0 0.0 0.00 0.01 0.00 82 1014.2
20260509102110 52 188 0.0 0.0 0.00 0.01 0.00 82 1014.1
20260509101611 52 188 0.0 0.0 0.00 0.01 0.00 81 1014.2
20260509101334 52 188 0.0 0.0 0.00 0.01 0.00 81 1014.1
20260509100557 52 188 0.0 0.0 0.00 0.01 0.00 81 1014.1
20260509100059 52 188 0.0 0.0 0.00 0.01 0.00 81 1014.1
20260509095816 52 188 0.0 0.0 0.00 0.01 0.00 81 1014.2
20260509095039 52 188 0.0 0.0 0.00 0.01 0.00 81 1014.1
20260509094532 52 188 0.0 0.0 0.00 0.01 0.00 81 1014.2
20260509094027 52 188 0.0 0.0 0.00 0.01 0.00 81 1014.2
20260509093521 52 188 0.0 0.0 0.00 0.01 0.00 80 1014.1
20260509093015 52 188 0.0 0.0 0.00 0.01 0.00 80 1014.1
20260509092509 53 188 0.0 0.0 0.00 0.01 0.00 80 1014.1
20260509092003 53 188 0.0 0.0 0.00 0.01 0.00 80 1014.1
20260509091457 53 188 0.0 0.0 0.00 0.01 0.00 80 1014.1
20260509090951 53 188 0.0 0.0 0.00 0.01 0.00 80 1014.0
20260509090445 53 188 0.0 0.0 0.00 0.01 0.00 80 1014.1
20260509090211 53 188 0.0 0.0 0.00 0.01 0.00 80 1014.2
20260509085433 53 188 0.0 0.0 0.00 0.01 0.00 80 1014.3
20260509084926 53 188 0.0 0.0 0.00 0.01 0.00 80 1014.2
20260509084421 53 188 0.0 1.0 0.00 0.01 0.00 80 1014.3
20260509083915 53 188 0.0 1.0 0.00 0.01 0.00 80 1014.2
20260509083409 53 188 0.0 0.0 0.00 0.01 0.00 80 1014.4
20260509083134 53 188 0.0 0.0 0.00 0.01 0.00 79 1014.4
20260509082357 54 188 0.0 0.0 0.00 0.01 0.00 79 1014.4
20260509082122 54 188 0.0 0.0 0.00 0.01 0.00 79 1014.4
20260509081344 54 188 0.0 0.0 0.00 0.01 0.00 79 1014.4
20260509080839 54 188 0.0 0.0 0.00 0.01 0.00 79 1014.4
20260509080333 54 188 0.0 0.0 0.00 0.01 0.00 79 1014.3
20260509075826 54 188 0.0 0.0 0.00 0.01 0.00 79 1014.3
20260509075321 54 188 0.0 0.0 0.00 0.01 0.00 79 1014.3
20260509074815 54 188 0.0 0.0 0.00 0.01 0.00 79 1014.4
20260509074309 54 188 0.0 0.0 0.00 0.01 0.00 79 1014.4
20260509073802 54 188 0.0 0.0 0.00 0.01 0.00 79 1014.5
20260509073528 54 188 0.0 0.0 0.00 0.01 0.00 78 1014.5
20260509072750 54 188 0.0 0.0 0.00 0.01 0.00 78 1014.5
20260509072245 54 188 0.0 0.0 0.00 0.01 0.00 78 1014.6
20260509071738 54 188 0.0 3.0 0.00 0.01 0.00 78 1014.6
20260509071233 54 188 0.0 3.0 0.00 0.01 0.00 77 1014.6
20260509070727 55 163 0.0 2.0 0.00 0.01 0.00 77 1014.6
20260509070220 55 169 0.0 0.0 0.00 0.01 0.00 77 1014.6
20260509065716 55 173 0.0 0.0 0.00 0.01 0.00 77 1014.6
20260509065710 55 185 0.0 0.0 0.00 0.01 0.00 76 1014.7
20260509064703 55 198 0.0 3.0 0.00 0.01 0.00 76 1014.7
20260509064156 55 198 0.0 3.0 0.00 0.01 0.00 76 1014.7
20260509063651 55 187 0.0 0.0 0.00 0.01 0.00 76 1014.8
20260509063145 55 187 0.0 0.0 0.00 0.01 0.00 76 1014.8
20260509062640 55 169 0.0 1.0 0.00 0.01 0.00 76 1014.9
20260509062141 55 169 0.0 1.0 0.00 0.01 0.00 76 1015.0
20260509061911 55 169 0.0 1.0 0.00 0.01 0.00 76 1015.1
20260509061140 55 194 0.0 1.0 0.00 0.01 0.00 76 1015.1
20260509060639 56 194 0.0 1.0 0.00 0.01 0.00 75 1015.1
20260509060139 56 185 0.0 4.0 0.00 0.01 0.00 75 1015.2
20260509055639 56 205 1.0 4.0 0.00 0.01 0.00 75 1015.2
20260509055409 56 174 0.0 2.0 0.00 0.01 0.00 75 1015.2
20260509054637 56 173 0.0 2.0 0.00 0.01 0.00 75 1015.2
20260509054137 56 172 0.0 1.0 0.00 0.01 0.00 75 1015.3
20260509053909 56 188 0.0 2.0 0.00 0.01 0.00 74 1015.3
20260509053134 56 177 0.0 3.0 0.00 0.01 0.00 74 1015.2
20260509052906 56 182 0.0 4.0 0.00 0.01 0.00 74 1015.3
20260509052134 56 181 1.0 4.0 0.00 0.01 0.00 74 1015.2
20260509051635 56 178 1.0 6.0 0.00 0.01 0.00 74 1015.4
20260509051130 56 202 1.0 6.0 0.00 0.01 0.00 74 1015.3
20260509050630 56 171 0.0 5.0 0.00 0.01 0.00 73 1015.4
20260509050131 56 155 0.0 4.0 0.00 0.01 0.00 73 1015.1
20260509045630 56 221 1.0 6.0 0.00 0.01 0.00 73 1015.2
20260509045401 56 170 1.0 6.0 0.00 0.01 0.00 73 1015.1
20260509044630 56 196 1.0 5.0 0.00 0.01 0.00 73 1015.2
20260509044131 56 188 1.0 5.0 0.00 0.01 0.00 73 1015.2
20260509043632 56 144 1.0 5.0 0.00 0.01 0.00 73 1015.2
20260509043130 56 148 2.0 6.0 0.00 0.01 0.00 73 1015.1
20260509042631 56 172 1.0 6.0 0.00 0.01 0.00 73 1015.0
20260509042131 56 135 1.0 5.0 0.00 0.01 0.00 73 1015.0
20260509041628 56 182 1.0 4.0 0.00 0.01 0.00 73 1015.3
20260509041130 56 176 0.0 2.0 0.00 0.01 0.00 72 1015.5
20260509040629 56 179 0.0 2.0 0.00 0.01 0.00 72 1015.5
20260509040126 56 181 0.0 2.0 0.00 0.01 0.00 72 1015.4
20260509035626 56 193 0.0 4.0 0.00 0.01 0.01 72 1015.5
20260509035122 56 184 1.0 4.0 0.00 0.01 0.01 72 1015.5
20260509034623 56 180 1.0 6.0 0.00 0.01 0.01 71 1015.6
20260509034116 56 154 1.0 6.0 0.00 0.01 0.01 71 1015.7
20260509033611 56 205 1.0 4.0 0.00 0.01 0.01 71 1015.8
20260509033105 56 179 1.0 5.0 0.00 0.01 0.01 71 1015.9
20260509032559 56 180 1.0 7.0 0.00 0.01 0.01 71 1015.9
20260509032324 56 169 2.0 7.0 0.00 0.01 0.01 71 1015.8
20260509031547 56 164 1.0 6.0 0.00 0.01 0.01 71 1015.8
20260509031040 56 190 1.0 4.0 0.00 0.01 0.01 71 1015.8
20260509030535 56 186 0.0 2.0 0.00 0.01 0.01 71 1016.0
20260509030029 56 186 1.0 3.0 0.00 0.01 0.01 70 1016.2
20260509025523 56 185 1.0 3.0 0.00 0.01 0.01 70 1016.2
20260509025016 56 212 0.0 3.0 0.00 0.01 0.01 70 1016.1
20260509024511 56 168 0.0 3.0 0.00 0.01 0.01 69 1016.0
20260509024005 56 180 0.0 3.0 0.00 0.01 0.01 69 1016.0
20260509023730 56 186 0.0 2.0 0.00 0.01 0.01 68 1016.1
20260509022953 56 180 1.0 4.0 0.00 0.01 0.01 68 1016.1
20260509022447 56 175 1.0 5.0 0.00 0.01 0.01 68 1016.1
20260509021941 56 174 0.0 5.0 0.00 0.01 0.01 68 1016.1
20260509021435 56 119 0.0 4.0 0.00 0.01 0.01 67 1016.2
20260509020929 57 185 0.0 4.0 0.00 0.01 0.01 67 1016.0
20260509020435 57 169 0.0 1.0 0.00 0.01 0.01 67 1016.0
20260509015917 57 178 0.0 2.0 0.00 0.01 0.01 66 1016.0
20260509015411 57 178 0.0 2.0 0.00 0.01 0.01 66 1015.8
20260509014904 57 187 0.0 3.0 0.00 0.01 0.01 66 1015.8
20260509014359 57 186 0.0 3.0 0.00 0.01 0.01 66 1015.8
20260509013853 57 188 0.0 4.0 0.00 0.01 0.01 65 1015.7
20260509013346 57 169 1.0 4.0 0.00 0.01 0.01 65 1015.6
20260509012841 58 195 1.0 4.0 0.00 0.01 0.01 65 1015.7
20260509012606 58 190 1.0 4.0 0.00 0.01 0.01 64 1015.6
20260509011829 58 190 0.0 2.0 0.00 0.01 0.01 64 1015.6
20260509011323 58 190 0.0 3.0 0.00 0.01 0.01 64 1015.5
20260509010816 58 182 0.0 3.0 0.00 0.01 0.01 63 1015.4
20260509010311 58 157 1.0 6.0 0.00 0.01 0.01 63 1015.4
20260509005805 58 182 1.0 6.0 0.00 0.01 0.01 62 1015.3
20260509005530 58 170 1.0 5.0 0.00 0.01 0.01 62 1015.2
20260509004753 58 150 1.0 6.0 0.00 0.01 0.01 62 1015.3
20260509004247 59 177 1.0 6.0 0.00 0.01 0.01 61 1015.3
20260509003740 59 169 2.0 6.0 0.00 0.01 0.01 62 1015.3
20260509003235 59 172 2.0 6.0 0.00 0.01 0.01 61 1015.3
20260509002728 59 177 2.0 6.0 0.00 0.01 0.01 61 1015.1
20260509002222 60 150 1.0 5.0 0.00 0.01 0.01 60 1015.0
20260509001717 60 179 2.0 8.0 0.00 0.01 0.01 60 1014.9
20260509001210 60 166 2.0 8.0 0.00 0.01 0.01 59 1014.8
20260509000707 60 175 2.0 7.0 0.00 0.01 0.01 60 1014.8
20260509000208 60 188 2.0 7.0 0.00 0.01 0.01 60 1014.8
20260508235706 60 145 2.0 7.0 0.00 0.01 0.01 59 1014.7
20260508235438 60 172 2.0 7.0 0.00 0.01 0.01 59 1014.8
20260508234706 61 162 3.0 8.0 0.00 0.01 0.01 59 1014.7
20260508234207 61 149 4.0 8.0 0.00 0.01 0.01 59 1014.7
20260508233707 61 123 4.0 8.0 0.00 0.01 0.01 58 1014.4
20260508233440 61 142 3.0 9.0 0.00 0.01 0.01 58 1014.3
20260508232714 62 187 3.0 8.0 0.00 0.01 0.01 58 1014.3
20260508232707 62 191 3.0 9.0 0.00 0.01 0.01 58 1014.4
20260508231706 62 165 3.0 8.0 0.00 0.01 0.01 57 1014.3
20260508231207 62 169 2.0 9.0 0.00 0.01 0.01 57 1014.3
20260508230938 62 205 3.0 10.0 0.00 0.01 0.01 56 1014.4
20260508230206 62 178 4.0 10.0 0.00 0.01 0.01 56 1014.3
20260508225700 62 148 4.0 10.0 0.00 0.01 0.01 55 1014.3
20260508225153 62 157 4.0 10.0 0.00 0.01 0.01 56 1014.3
20260508224646 62 167 3.0 10.0 0.00 0.01 0.01 57 1014.3
20260508224141 62 110 3.0 9.0 0.00 0.01 0.01 56 1014.4
20260508223635 62 177 2.0 7.0 0.00 0.01 0.01 57 1014.3
20260508223129 63 158 2.0 9.0 0.00 0.01 0.01 58 1014.4
20260508222622 63 215 4.0 12.0 0.00 0.01 0.01 57 1014.5
20260508222117 62 205 3.0 12.0 0.00 0.01 0.01 57 1014.6
20260508221611 63 169 3.0 8.0 0.00 0.01 0.01 57 1014.5
20260508221117 63 184 4.0 13.0 0.00 0.01 0.01 56 1014.5
20260508220830 63 171 4.0 13.0 0.00 0.01 0.01 56 1014.6
20260508220059 63 161 3.0 10.0 0.00 0.01 0.01 56 1014.7
20260508215547 63 167 4.0 14.0 0.00 0.01 0.01 56 1014.6
20260508215041 63 166 4.0 12.0 0.00 0.01 0.01 55 1014.6
20260508214535 63 186 4.0 12.0 0.00 0.01 0.01 56 1014.6
20260508214028 63 94 3.0 9.0 0.00 0.01 0.01 56 1014.5
20260508213524 63 171 3.0 10.0 0.00 0.01 0.01 55 1014.4
20260508213026 64 144 3.0 12.0 0.00 0.01 0.01 55 1014.4
20260508212524 63 229 3.0 12.0 0.00 0.01 0.01 56 1014.3
20260508212025 64 177 3.0 11.0 0.00 0.01 0.01 53 1014.3
20260508211532 64 159 4.0 10.0 0.00 0.01 0.01 52 1014.3
20260508211524 64 175 3.0 8.0 0.00 0.01 0.01 52 1014.3
20260508210524 64 143 3.0 10.0 0.00 0.01 0.01 53 1014.4
20260508210025 64 152 2.0 8.0 0.00 0.01 0.01 53 1014.3
20260508205526 64 150 3.0 10.0 0.00 0.01 0.01 52 1014.4
20260508205024 64 166 3.0 10.0 0.00 0.01 0.01 51 1014.4
20260508204524 64 192 3.0 10.0 0.00 0.01 0.01 50 1014.4
20260508204025 64 142 4.0 10.0 0.00 0.01 0.01 49 1014.4
20260508203525 64 190 4.0 10.0 0.00 0.01 0.01 54 1014.4
20260508203024 64 165 4.0 10.0 0.00 0.01 0.01 53 1014.5
20260508202518 64 187 3.0 10.0 0.00 0.01 0.01 51 1014.5
20260508202015 64 182 4.0 10.0 0.00 0.01 0.01 52 1014.6
20260508201515 64 123 4.0 10.0 0.00 0.01 0.01 51 1014.5
20260508201015 64 132 3.0 11.0 0.00 0.01 0.01 53 1014.5
20260508200746 64 36 4.0 11.0 0.00 0.01 0.01 52 1014.5
20260508200014 64 129 4.0 10.0 0.00 0.01 0.01 51 1014.6
20260508195514 65 106 3.0 10.0 0.00 0.01 0.01 51 1014.6
20260508195015 65 71 3.0 9.0 0.00 0.01 0.01 50 1014.7
20260508194516 65 121 3.0 9.0 0.00 0.01 0.01 49 1014.8
20260508194015 64 129 3.0 7.0 0.00 0.01 0.01 46 1014.9
20260508193515 65 156 3.0 10.0 0.00 0.01 0.01 49 1015.0
20260508193015 64 171 4.0 10.0 0.00 0.01 0.01 48 1015.2
20260508192515 64 171 3.0 9.0 0.00 0.01 0.01 49 1015.1
20260508192028 64 182 4.0 11.0 0.00 0.01 0.01 50 1015.1
20260508191515 64 145 4.0 11.0 0.00 0.01 0.01 51 1015.3
20260508191017 65 163 3.0 11.0 0.00 0.01 0.01 52 1015.4
20260508191010 65 162 3.0 11.0 0.00 0.01 0.01 52 1015.3
20260508190009 65 160 3.0 10.0 0.00 0.01 0.01 52 1015.4
20260508185510 66 152 3.0 10.0 0.00 0.01 0.01 53 1015.5
20260508185009 65 223 3.0 10.0 0.00 0.01 0.01 50 1015.5
20260508184508 65 98 4.0 11.0 0.00 0.01 0.01 52 1015.6
20260508184007 65 160 4.0 13.0 0.00 0.01 0.01 52 1015.6
20260508183507 66 205 3.0 13.0 0.00 0.01 0.01 50 1015.6
20260508183008 66 40 3.0 8.0 0.00 0.01 0.01 51 1015.6
20260508182505 67 272 3.0 8.0 0.00 0.01 0.01 50 1015.7
20260508182005 67 165 2.0 7.0 0.00 0.01 0.01 50 1015.6
20260508181504 67 145 1.0 4.0 0.00 0.01 0.01 50 1015.7
20260508181006 68 5 2.0 5.0 0.00 0.01 0.01 51 1015.7
20260508180513 65 177 2.0 7.0 0.00 0.01 0.01 51 1015.8
20260508180506 67 43 2.0 6.0 0.00 0.01 0.01 49 1015.7
20260508175500 66 206 2.0 6.0 0.00 0.01 0.01 52 1015.9
20260508175000 67 46 1.0 6.0 0.00 0.01 0.01 46 1015.9
20260508174458 67 40 1.0 3.0 0.00 0.01 0.01 48 1016.1
20260508173958 68 189 2.0 6.0 0.00 0.01 0.01 50 1016.1
20260508173500 67 35 1.0 6.0 0.00 0.01 0.01 50 1016.2
20260508173228 67 17 2.0 5.0 0.00 0.01 0.01 47 1016.1
20260508172457 67 23 2.0 5.0 0.00 0.01 0.01 50 1016.3
20260508171957 67 13 2.0 5.0 0.00 0.01 0.01 50 1016.5
20260508171457 66 334 2.0 5.0 0.00 0.01 0.01 51 1016.5
20260508171228 66 355 2.0 5.0 0.00 0.01 0.01 47 1016.5
20260508171116 67 342 2.0 6.0 0.00 0.01 0.01 55 1016.6
20260508170226 67 50 2.0 6.0 0.00 0.01 0.01 48 1016.7
20260508165455 65 96 1.0 5.0 0.01 0.01 0.01 51 1016.7
20260508164955 65 94 1.0 4.0 0.01 0.01 0.01 47 1016.7
20260508164455 66 326 1.0 6.0 0.01 0.01 0.01 49 1016.8
20260508163951 66 344 2.0 6.0 0.01 0.01 0.01 47 1016.8
20260508163450 65 50 1.0 5.0 0.01 0.01 0.01 47 1016.8
20260508162949 66 338 1.0 5.0 0.01 0.01 0.01 51 1016.9
20260508162448 65 131 2.0 5.0 0.01 0.01 0.01 53 1016.9
20260508161948 66 336 1.0 3.0 0.01 0.01 0.01 47 1017.0
20260508161448 65 79 0.0 4.0 0.01 0.01 0.01 52 1017.0
20260508160946 64 191 2.0 7.0 0.01 0.01 0.01 47 1017.0
20260508160447 64 155 3.0 7.0 0.01 0.01 0.01 49 1017.1
20260508155945 64 17 2.0 5.0 0.01 0.01 0.01 52 1017.1
20260508155445 64 328 1.0 4.0 0.00 0.00 0.00 53 1017.2
20260508154944 65 103 1.0 6.0 0.00 0.00 0.00 50 1017.2
20260508154443 63 339 1.0 6.0 0.00 0.00 0.00 54 1017.2
20260508154212 62 309 2.0 8.0 0.00 0.00 0.00 52 1017.3
20260508153440 64 338 3.0 8.0 0.00 0.00 0.00 55 1017.3
20260508152942 64 312 3.0 8.0 0.00 0.00 0.00 54 1017.3